Flag for U.S.A. Weather past 2 weeks in Omaha, Nebraska, U.S.A.

Now
64 °F

Mostly cloudy.


Feels Like: 64 °F
Forecast: 63 / 75 °F
Wind: 6 mph from East

Location: Omaha - Eppley Airfield

Current Time: Jul 2, 2015 at 8:04:13 AM

Latest Report: Jul 2, 2015 at 6:52 AM


Visibility: 10 mi

Pressure: 29.94 "Hg

Humidity: 84%

Dew point: 59 °F

Location of OmahaLocation

Historic Weather in Omaha — Graph

°F

Omaha temperature yesterday

Maximum temperature yesterday: 84 °F (at 3:52 PM)
Minimum temperature yesterday: 67 °F (at 3:52 AM)
Average temperature yesterday: 75 °F

Past Weeks' High & Low Weather Summary

 TemperatureHumidityPressure
High93 °F (Jun 22, 2:52 PM)97% (Jun 21, 5:52 AM)30.14 "Hg (Jun 21, 5:52 AM)
Low59 °F (Jun 19, 3:52 AM)34% (Jun 28, 4:52 PM)29.65 "Hg (Jun 22, 6:52 AM)
Average75 °F70%29.92 "Hg
* Reported Jun 17 6:52 AM — Jul 2 6:52 AM, Omaha, Weather by CustomWeather, © 2015

Note: Actual official high and low records may vary slightly from our data, if they occured in-between our weather recording intervals... More about our weather records

Advertising

Omaha weather history for previous 24 hours

 ConditionsComfort  
Time TempWeatherWind HumidityBarometerVisibility
6:52 AM
Thu, Jul 2
64 °FMostly cloudy.6 mph84%29.94 "Hg10 mi
5:52 AM65 °FOvercast.7 mph81%29.93 "Hg10 mi
5:04 AM65 °FOvercast.3 mph81%29.94 "Hg10 mi
4:52 AM65 °FPassing clouds.3 mph81%29.91 "Hg10 mi
3:52 AM66 °FMostly cloudy.3 mph78%29.91 "Hg10 mi
2:52 AM67 °FPassing clouds.8 mph79%29.90 "Hg10 mi
1:52 AM69 °FPassing clouds.7 mph73%29.91 "Hg10 mi
12:52 AM70 °FOvercast.7 mph76%29.90 "Hg10 mi
11:52 PM
Wed, Jul 1
70 °FPassing clouds.5 mph84%29.90 "Hg10 mi
10:52 PM72 °FPassing clouds.5 mph81%29.90 "Hg10 mi
9:52 PM73 °FPassing clouds.8 mph79%29.88 "Hg10 mi
8:52 PM75 °FBroken clouds.13 mph76%29.86 "Hg10 mi
7:52 PM78 °FPartly sunny.12 mph71%29.86 "Hg10 mi
6:52 PM80 °FScattered clouds.12 mph67%29.84 "Hg10 mi
5:52 PM83 °FScattered clouds.14 mph63%29.83 "Hg10 mi
4:52 PM84 °FScattered clouds.12 mph59%29.83 "Hg10 mi
3:52 PM84 °FScattered clouds.10 mph59%29.84 "Hg10 mi
2:52 PM83 °FScattered clouds.14 mph63%29.83 "Hg10 mi
1:52 PM83 °FScattered clouds.10 mph63%29.84 "Hg10 mi
12:52 PM81 °FScattered clouds.13 mph67%29.85 "Hg10 mi
11:52 AM80 °FScattered clouds.9 mph67%29.85 "Hg10 mi
10:52 AM77 °FBroken clouds.15 mph74%29.84 "Hg7 mi
9:52 AM74 °FBroken clouds.8 mph79%29.86 "Hg7 mi
8:52 AM71 °FPartly sunny.5 mph84%29.85 "Hg7 mi
Weather by CustomWeather, © 2015

See weather overviewHow to use our weather pages